Location: Góry Miechowskie
(50.3599°N, 20.1803°E)
Time: 04:15:49
(UTC+00:00)

Resurs 1-4 Rocket - Pass Details

Date: 26 September 2024
Orbit: 798 x 813 km, 98.8° (Epoch: 14 October)

Event Time Altitude Azimuth Distance (km) Brightness Sun altitude
Rises 02:58:30 0° 3° (N) 3,319 5.6 -15.6°
Reaches altitude 10° 03:02:09 10° 336° (NNW) 2,383 4.5 -15.0°
Maximum altitude 03:04:25 13° 311° (NW) 2,178 4.0 -14.7°
Enters shadow 03:05:35 12° 297° (WNW) 2,233 4.0 -14.5°
